NA0H Weather Reports


time (UTC)temp
C
wind
direction
speed
KPH
gust
KPH
rain 1hr
cm
rain 24hr
cm
rain mn
cm
humidity
%
barometer
mb
20260507160003 6 189 3.2 8.0 0.00 0.00 0.00 62 1008.4
20260507155503 6 254 3.2 8.0 0.00 0.00 0.00 58 1008.4
20260507155003 5 272 3.2 4.8 0.00 0.00 0.00 62 1008.4
20260507154716 5 272 3.2 4.8 0.00 0.00 0.00 60 1008.4
20260507154003 5 273 3.2 9.7 0.00 0.00 0.00 61 1008.5
20260507153503 5 313 3.2 9.7 0.00 0.00 0.00 62 1008.5
20260507153003 5 358 3.2 8.0 0.00 0.00 0.00 63 1008.5
20260507152503 5 360 3.2 8.0 0.00 0.00 0.00 61 1008.5
20260507152003 4 360 4.8 12.9 0.00 0.00 0.00 63 1008.5
20260507151503 4 360 6.4 12.9 0.00 0.00 0.00 65 1008.5
20260507151219 3 360 6.4 12.9 0.00 0.00 0.00 64 1008.5
20260507150503 3 360 6.4 20.9 0.00 0.00 0.00 66 1008.5
20260507150217 3 360 8.0 20.9 0.00 0.00 0.00 65 1008.5
20260507145503 3 360 8.0 20.9 0.00 0.00 0.00 70 1008.5
20260507145003 3 360 8.0 14.5 0.00 0.00 0.00 69 1008.5
20260507144503 3 360 8.0 16.1 0.00 0.00 0.00 69 1008.6
20260507144003 3 360 9.7 16.1 0.00 0.00 0.00 68 1008.5
20260507143717 3 360 9.7 16.1 0.00 0.00 0.00 69 1008.5
20260507143003 3 360 11.3 19.3 0.00 0.00 0.00 69 1008.5
20260507142503 3 360 12.9 19.3 0.00 0.00 0.00 69 1008.5
20260507142003 3 360 11.3 16.1 0.00 0.00 0.00 70 1008.4
20260507141503 3 360 11.3 16.1 0.00 0.00 0.00 70 1008.4
20260507141003 3 360 9.7 16.1 0.00 0.00 0.00 70 1008.4
20260507140503 3 360 9.7 17.7 0.00 0.00 0.00 71 1008.4
20260507140003 3 360 12.9 19.3 0.00 0.00 0.00 70 1008.5
20260507135503 3 360 14.5 20.9 0.00 0.00 0.00 70 1008.4
20260507135003 2 360 14.5 20.9 0.00 0.00 0.00 71 1008.4
20260507134719 2 360 12.9 20.9 0.00 0.00 0.00 72 1008.4
20260507134003 2 360 8.0 16.1 0.00 0.00 0.00 74 1008.5
20260507133503 1 360 4.8 16.1 0.00 0.00 0.00 75 1008.5
20260507133003 1 360 3.2 6.4 0.00 0.00 0.00 77 1008.5
20260507132503 1 360 3.2 6.4 0.00 0.00 0.00 77 1008.6
20260507132003 1 360 1.6 6.4 0.00 0.00 0.00 78 1008.6
20260507131717 1 360 1.6 4.8 0.00 0.00 0.00 78 1008.7
20260507131003 0 360 1.6 4.8 0.00 0.00 0.00 78 1008.7
20260507130503 0 360 3.2 6.4 0.00 0.00 0.00 79 1008.7
20260507130003 0 360 3.2 6.4 0.00 0.00 0.00 81 1008.6
20260507125503 0 360 3.2 6.4 0.00 0.00 0.00 85 1008.5
20260507125003 0 360 3.2 6.4 0.00 0.00 0.00 88 1008.6
20260507124503 0 360 1.6 4.8 0.00 0.00 0.00 89 1008.7
20260507124003 -1 0 0.0 0.0 0.00 0.00 0.00 89 1008.7
20260507123717 -1 0 0.0 0.0 0.00 0.00 0.00 90 1008.8
20260507123003 -1 0 0.0 0.0 0.00 0.00 0.00 90 1008.8
20260507122503 -1 0 0.0 0.0 0.00 0.00 0.00 90 1008.8
20260507122216 -1 0 0.0 0.0 0.00 0.00 0.00 90 1008.8
20260507121503 -1 0 0.0 0.0 0.00 0.00 0.00 90 1008.8
20260507121003 -1 0 0.0 0.0 0.00 0.00 0.00 90 1008.8
20260507120503 -1 0 0.0 0.0 0.00 0.00 0.00 90 1008.7
20260507120216 -1 0 0.0 0.0 0.00 0.00 0.00 90 1008.8
20260507115503 -1 0 0.0 0.0 0.00 0.00 0.00 90 1008.7
20260507115217 -1 0 0.0 0.0 0.00 0.00 0.00 90 1008.7
20260507114718 -1 0 0.0 0.0 0.00 0.00 0.00 90 1008.7
20260507114003 -2 0 0.0 0.0 0.00 0.00 0.00 90 1008.7
20260507113716 -2 0 0.0 0.0 0.00 0.00 0.00 90 1008.7
20260507113003 -2 0 0.0 0.0 0.00 0.00 0.00 90 1008.7
20260507112503 -2 0 0.0 0.0 0.00 0.00 0.00 90 1008.6
20260507112003 -2 0 0.0 0.0 0.00 0.00 0.00 90 1008.7
20260507111503 -2 0 0.0 0.0 0.00 0.00 0.00 89 1008.7
20260507111003 -2 0 0.0 0.0 0.00 0.00 0.00 89 1008.6
20260507110503 -2 0 0.0 0.0 0.00 0.00 0.00 88 1008.6
20260507110219 -2 0 0.0 0.0 0.00 0.00 0.00 88 1008.6
20260507105503 -2 0 0.0 0.0 0.00 0.00 0.00 88 1008.7
20260507105217 -2 0 0.0 0.0 0.00 0.00 0.00 88 1008.7
20260507104503 -2 0 0.0 0.0 0.00 0.00 0.00 87 1008.8
20260507104003 -2 0 0.0 0.0 0.00 0.00 0.00 87 1008.8
20260507103716 -2 0 0.0 0.0 0.00 0.00 0.00 87 1008.8
20260507103003 -2 0 0.0 0.0 0.00 0.00 0.00 87 1008.8
20260507102503 -2 0 0.0 0.0 0.00 0.00 0.00 87 1008.8
20260507102003 -2 0 0.0 0.0 0.00 0.00 0.00 87 1008.8
20260507101503 -2 0 0.0 0.0 0.00 0.00 0.00 86 1008.9
20260507101003 -2 0 0.0 0.0 0.00 0.00 0.00 84 1008.8
20260507100503 -2 0 0.0 0.0 0.00 0.00 0.00 83 1008.8
20260507100003 -1 0 0.0 0.0 0.00 0.00 0.00 85 1008.9
20260507095503 -1 0 0.0 0.0 0.00 0.00 0.00 85 1008.8
20260507095003 -1 0 0.0 0.0 0.00 0.00 0.00 84 1008.8
20260507094503 -1 0 0.0 0.0 0.00 0.00 0.00 84 1008.8
20260507094003 -1 0 0.0 0.0 0.00 0.00 0.00 82 1008.8
20260507093503 -1 0 0.0 0.0 0.00 0.00 0.00 83 1008.8
20260507093003 -1 0 0.0 0.0 0.00 0.00 0.00 84 1008.8
20260507092503 -1 0 0.0 0.0 0.00 0.00 0.00 83 1008.8
20260507092218 -1 0 0.0 0.0 0.00 0.00 0.00 83 1008.8
20260507091503 -1 0 0.0 0.0 0.00 0.00 0.00 82 1008.8
20260507091003 -1 0 0.0 0.0 0.00 0.00 0.00 82 1008.9
20260507090503 -1 0 0.0 0.0 0.00 0.00 0.00 82 1008.9
20260507090003 -1 0 0.0 0.0 0.00 0.00 0.00 82 1008.8
20260507085503 -1 0 0.0 0.0 0.00 0.00 0.00 81 1008.8
20260507085003 -1 0 0.0 0.0 0.00 0.00 0.00 81 1008.8
20260507084717 -1 0 0.0 0.0 0.00 0.00 0.00 81 1008.8
20260507084003 -1 0 0.0 0.0 0.00 0.00 0.00 81 1008.9
20260507083503 -1 0 0.0 0.0 0.00 0.00 0.00 81 1008.9
20260507083003 -1 0 0.0 0.0 0.00 0.00 0.00 81 1008.9
20260507082717 -1 0 0.0 0.0 0.00 0.00 0.00 81 1008.9
20260507082003 -1 0 0.0 0.0 0.00 0.00 0.00 81 1008.9
20260507081503 0 0 0.0 0.0 0.00 0.00 0.00 81 1008.9
20260507081003 -1 0 0.0 0.0 0.00 0.00 0.00 81 1008.9
20260507080717 -1 0 0.0 0.0 0.00 0.00 0.00 81 1008.9
20260507080003 0 0 0.0 0.0 0.00 0.00 0.00 81 1008.9
20260507075503 0 0 0.0 0.0 0.00 0.00 0.00 82 1008.8
20260507075216 0 0 0.0 0.0 0.00 0.00 0.00 81 1008.9
20260507074503 0 0 0.0 0.0 0.00 0.00 0.00 80 1008.8
20260507074003 0 0 0.0 0.0 0.00 0.00 0.00 81 1008.8
20260507073719 0 0 0.0 0.0 0.00 0.00 0.00 81 1008.8
20260507073003 0 0 0.0 0.0 0.00 0.00 0.00 82 1008.9
20260507072503 0 0 0.0 0.0 0.00 0.00 0.00 81 1009.0
20260507072003 0 0 0.0 0.0 0.00 0.00 0.00 81 1009.0
20260507071719 0 0 0.0 0.0 0.00 0.00 0.00 81 1009.0
20260507071215 0 0 0.0 0.0 0.00 0.00 0.00 81 1009.1
20260507070503 0 0 0.0 0.0 0.00 0.00 0.00 81 1009.0
20260507070005 0 0 0.0 0.0 0.00 0.00 0.00 81 1009.1
20260507065503 0 0 0.0 0.0 0.00 0.00 0.00 81 1009.1
20260507065003 0 0 0.0 0.0 0.00 0.00 0.00 82 1009.1
20260507064503 0 0 0.0 0.0 0.00 0.00 0.00 82 1009.1
20260507064218 0 0 0.0 0.0 0.00 0.00 0.00 82 1009.2
20260507063503 0 0 0.0 0.0 0.00 0.00 0.00 82 1009.3
20260507063003 0 0 0.0 0.0 0.00 0.00 0.00 82 1009.3
20260507062503 0 0 0.0 0.0 0.00 0.00 0.00 81 1009.3
20260507062003 0 0 0.0 0.0 0.00 0.00 0.00 81 1009.4
20260507061503 0 0 0.0 0.0 0.00 0.00 0.00 81 1009.4
20260507061003 0 0 0.0 0.0 0.00 0.00 0.00 80 1009.5
20260507060503 0 0 0.0 0.0 0.00 0.00 0.00 80 1009.6
20260507060003 0 0 0.0 0.0 0.00 0.00 0.00 80 1009.6
20260507055503 0 0 0.0 0.0 0.00 0.00 0.00 79 1009.6
20260507055003 0 360 0.0 1.6 0.00 0.00 0.00 79 1009.6
20260507054503 0 360 0.0 1.6 0.00 0.00 0.00 78 1009.7
20260507054217 0 360 0.0 1.6 0.00 0.00 0.00 78 1009.7
20260507053503 1 360 0.0 1.6 0.00 0.00 0.00 78 1009.7
20260507053003 1 360 0.0 1.6 0.00 0.00 0.00 78 1009.7
20260507052503 1 360 0.0 1.6 0.00 0.00 0.00 78 1009.7
20260507052217 0 0 0.0 0.0 0.00 0.00 0.00 78 1009.8
20260507051503 0 360 0.0 1.6 0.00 0.00 0.00 79 1009.9
20260507051003 0 360 0.0 1.6 0.00 0.00 0.00 79 1009.9
20260507050503 0 360 1.6 3.2 0.00 0.00 0.00 79 1009.8
20260507050003 0 360 1.6 4.8 0.00 0.00 0.00 79 1009.8
20260507045503 0 360 1.6 4.8 0.00 0.00 0.00 79 1009.7
20260507045003 1 0 0.0 0.0 0.00 0.00 0.00 79 1009.8
20260507044503 1 0 0.0 0.0 0.00 0.00 0.00 79 1010.0
20260507044003 1 0 0.0 0.0 0.00 0.00 0.00 79 1010.1
20260507043503 1 0 0.0 0.0 0.00 0.00 0.00 78 1010.2
20260507043003 1 0 0.0 0.0 0.00 0.00 0.00 78 1010.3
20260507042503 1 0 0.0 0.0 0.00 0.00 0.00 77 1010.3
20260507042003 1 0 0.0 0.0 0.00 0.00 0.00 77 1010.2
20260507041503 1 0 0.0 0.0 0.00 0.00 0.00 77 1010.3
20260507041003 1 0 0.0 0.0 0.00 0.00 0.00 77 1010.4
20260507040503 1 360 0.0 1.6 0.00 0.00 0.00 77 1010.4
20260507040003 1 360 0.0 3.2 0.00 0.00 0.00 76 1010.5
20260507035503 1 360 0.0 3.2 0.00 0.00 0.00 74 1010.5
20260507035003 2 360 0.0 1.6 0.00 0.00 0.00 73 1010.6
20260507034715 2 360 0.0 1.6 0.00 0.00 0.00 73 1010.6
20260507034216 2 0 0.0 0.0 0.00 0.00 0.00 71 1010.6
20260507033503 2 360 1.6 3.2 0.00 0.00 0.00 70 1010.6
20260507033003 2 360 1.6 3.2 0.00 0.00 0.00 70 1010.7
20260507032503 2 0 0.0 0.0 0.00 0.00 0.00 69 1010.7
20260507032003 2 0 0.0 0.0 0.00 0.00 0.00 67 1010.7
20260507031717 2 0 0.0 0.0 0.00 0.00 0.00 66 1010.7
20260507031003 2 0 0.0 0.0 0.00 0.00 0.00 65 1010.8
20260507030719 2 0 0.0 0.0 0.00 0.00 0.00 65 1010.8
20260507030003 3 0 0.0 0.0 0.00 0.00 0.00 64 1010.9
20260507025717 3 0 0.0 0.0 0.00 0.00 0.00 64 1010.9
20260507025003 3 0 0.0 0.0 0.00 0.00 0.00 63 1010.9
20260507024503 3 360 0.0 1.6 0.00 0.00 0.00 63 1010.9
20260507024003 4 360 0.0 3.2 0.00 0.00 0.00 63 1010.9
20260507023503 4 360 0.0 3.2 0.00 0.00 0.00 62 1010.9
20260507023003 4 360 1.6 3.2 0.00 0.00 0.00 63 1010.9
20260507022503 4 360 3.2 4.8 0.00 0.00 0.00 63 1010.9
20260507022003 4 360 3.2 6.4 0.00 0.00 0.00 65 1011.0
20260507021503 4 360 4.8 8.0 0.00 0.00 0.00 66 1010.9
20260507021003 4 360 4.8 8.0 0.00 0.00 0.00 65 1010.9
20260507020503 5 360 4.8 8.0 0.00 0.00 0.00 63 1010.9
20260507020003 5 360 4.8 8.0 0.00 0.00 0.00 65 1010.8
20260507015503 5 360 4.8 8.0 0.00 0.00 0.00 64 1010.9
20260507015003 5 360 6.4 9.7 0.00 0.00 0.00 65 1010.9
20260507014503 5 360 6.4 12.9 0.00 0.00 0.00 65 1010.9
20260507014003 5 360 8.0 12.9 0.00 0.00 0.00 64 1010.8
20260507013503 5 360 9.7 17.7 0.00 0.00 0.00 64 1010.8
20260507013003 5 360 12.9 19.3 0.00 0.00 0.00 64 1010.8
20260507012719 5 360 12.9 19.3 0.00 0.00 0.00 63 1010.8
20260507012003 5 360 12.9 19.3 0.00 0.00 0.00 64 1010.8
20260507011503 5 360 12.9 17.7 0.00 0.00 0.00 64 1010.7
20260507011003 5 360 12.9 17.7 0.00 0.00 0.00 62 1010.8
20260507010718 5 360 11.3 17.7 0.00 0.00 0.00 63 1010.8
20260507010003 5 360 12.9 19.3 0.00 0.00 0.00 62 1010.8
20260507005503 5 360 14.5 19.3 0.00 0.00 0.00 63 1010.8
20260507005003 5 360 14.5 19.3 0.00 0.00 0.00 62 1010.8
20260507004503 5 360 12.9 19.3 0.00 0.00 0.00 62 1010.8
20260507004003 5 360 14.5 20.9 0.00 0.00 0.00 63 1010.8
20260507003503 5 360 16.1 20.9 0.00 0.00 0.00 60 1010.8
20260507003003 5 360 16.1 20.9 0.00 0.00 0.00 63 1010.8
20260507002503 5 360 16.1 22.5 0.00 0.00 0.00 63 1010.9
20260507002003 5 360 11.3 22.5 0.00 0.00 0.00 63 1010.8
20260507001503 5 360 11.3 19.3 0.00 0.00 0.00 60 1010.9
20260507001003 5 360 12.9 19.3 0.00 0.00 0.00 65 1010.9
20260507000718 5 360 11.3 19.3 0.00 0.00 0.00 63 1010.9
20260507000003 5 360 12.9 17.7 0.00 0.00 0.00 62 1010.9
20260506235503 5 360 11.3 17.7 0.00 0.00 0.00 63 1011.0
20260506235003 5 360 11.3 16.1 0.00 0.00 0.00 64 1011.0
20260506234503 5 360 9.7 16.1 0.00 0.00 0.00 63 1011.0
20260506234003 5 360 11.3 19.3 0.00 0.00 0.00 61 1011.1
20260506233503 5 360 11.3 19.3 0.00 0.00 0.00 64 1011.2
20260506233003 5 360 11.3 17.7 0.00 0.00 0.00 64 1011.2
20260506232503 5 360 11.3 17.7 0.00 0.00 0.00 62 1011.2
20260506232003 5 360 9.7 16.1 0.00 0.00 0.00 62 1011.3
20260506231503 5 360 9.7 14.5 0.00 0.00 0.00 64 1011.3
20260506231003 5 360 9.7 17.7 0.00 0.00 0.00 64 1011.2
20260506230503 5 360 9.7 17.7 0.00 0.00 0.00 64 1011.3
20260506230003 5 360 11.3 17.7 0.00 0.00 0.00 66 1011.3
20260506225503 5 360 11.3 17.7 0.00 0.00 0.00 63 1011.3
20260506225003 5 360 9.7 17.7 0.00 0.00 0.00 64 1011.3
20260506224503 5 360 9.7 14.5 0.00 0.00 0.00 65 1011.3
20260506224003 5 360 9.7 16.1 0.00 0.00 0.00 64 1011.4
20260506223715 4 360 9.7 16.1 0.00 0.00 0.00 65 1011.4
20260506223216 4 360 9.7 16.1 0.00 0.00 0.00 65 1011.4
20260506222503 4 360 8.0 16.1 0.00 0.00 0.00 63 1011.5
20260506222003 5 360 8.0 14.5 0.00 0.00 0.00 65 1011.5
20260506221503 5 360 11.3 24.1 0.00 0.00 0.00 64 1011.6
20260506221003 5 360 16.1 25.7 0.00 0.00 0.00 63 1011.6
20260506220503 5 360 19.3 25.7 0.00 0.00 0.00 63 1011.5
20260506220218 5 360 19.3 25.7 0.00 0.00 0.00 64 1011.5
20260506215503 5 360 17.7 27.4 0.00 0.00 0.00 66 1011.5
20260506215003 5 360 17.7 27.4 0.00 0.00 0.00 63 1011.5
20260506214503 5 360 16.1 27.4 0.00 0.00 0.00 63 1011.5
20260506214003 5 360 14.5 20.9 0.00 0.00 0.00 63 1011.5
20260506213503 5 360 14.5 20.9 0.00 0.00 0.00 65 1011.6
20260506213003 4 360 12.9 19.3 0.00 0.00 0.00 65 1011.6
20260506212717 4 360 12.9 19.3 0.00 0.00 0.00 65 1011.6
20260506212003 4 360 14.5 20.9 0.00 0.00 0.00 63 1011.7
20260506211503 4 360 14.5 20.9 0.00 0.00 0.00 64 1011.7
20260506211216 4 360 16.1 22.5 0.00 0.00 0.00 65 1011.7
20260506210503 4 360 19.3 25.7 0.00 0.00 0.00 65 1011.7
20260506210003 4 360 19.3 25.7 0.00 0.00 0.00 66 1011.8
20260506205503 4 360 19.3 25.7 0.00 0.00 0.00 65 1011.8
20260506205003 4 360 20.9 30.6 0.00 0.00 0.00 65 1011.8
20260506204503 4 360 20.9 30.6 0.00 0.00 0.00 65 1011.8
20260506204003 4 360 17.7 29.0 0.00 0.00 0.00 64 1011.9
20260506203503 4 360 16.1 29.0 0.00 0.00 0.00 65 1011.9
20260506203003 4 360 17.7 29.0 0.00 0.00 0.00 65 1011.9
20260506202503 4 360 19.3 29.0 0.00 0.00 0.00 65 1011.9
20260506202003 4 360 19.3 29.0 0.00 0.00 0.00 66 1012.0
20260506201503 4 360 19.3 25.7 0.00 0.00 0.00 66 1012.0
20260506201215 4 360 19.3 27.4 0.00 0.00 0.00 66 1011.9
20260506200503 4 360 20.9 29.0 0.00 0.00 0.00 66 1012.0
20260506200003 4 360 19.3 30.6 0.00 0.00 0.00 66 1012.1
20260506195503 4 360 17.7 30.6 0.00 0.00 0.00 64 1012.0
20260506195003 4 360 14.5 24.1 0.00 0.00 0.00 64 1012.1
20260506194716 4 360 16.1 24.1 0.00 0.00 0.00 65 1012.1
20260506194003 4 360 19.3 25.7 0.00 0.00 0.00 66 1012.1
20260506193503 4 360 17.7 25.7 0.00 0.00 0.00 66 1012.1
20260506193219 4 360 16.1 22.5 0.00 0.00 0.00 67 1012.2
20260506192503 4 360 17.7 29.0 0.00 0.00 0.00 65 1012.3
20260506192003 4 360 20.9 32.2 0.00 0.00 0.00 66 1012.2
20260506191503 4 360 20.9 32.2 0.00 0.00 0.00 67 1012.3
20260506191219 4 360 19.3 29.0 0.00 0.00 0.00 65 1012.3
20260506190503 4 360 17.7 25.7 0.00 0.00 0.00 67 1012.2
20260506190003 4 360 16.1 25.7 0.00 0.00 0.00 66 1012.2
20260506185503 4 360 11.3 20.9 0.00 0.00 0.00 62 1012.2
20260506185003 4 360 12.9 29.0 0.00 0.00 0.00 65 1012.2
20260506184503 3 360 17.7 29.0 0.00 0.00 0.00 67 1012.2
20260506184003 3 360 19.3 32.2 0.00 0.00 0.00 67 1012.3
20260506183503 3 360 17.7 32.2 0.00 0.00 0.00 67 1012.3
20260506183003 3 360 14.5 24.1 0.00 0.00 0.00 65 1012.3
20260506182503 3 360 16.1 24.1 0.00 0.00 0.00 67 1012.4
20260506182003 3 360 19.3 25.7 0.00 0.00 0.00 68 1012.4
20260506181503 3 360 19.3 27.4 0.00 0.00 0.00 68 1012.5
20260506181003 3 360 17.7 27.4 0.00 0.00 0.00 69 1012.5
20260506180716 3 360 16.1 27.4 0.00 0.00 0.00 71 1012.6
20260506180004 3 360 14.5 24.1 0.00 0.00 0.00 72 1012.6
20260506175503 3 360 16.1 24.1 0.00 0.00 0.00 74 1012.7
20260506175219 3 360 17.7 24.1 0.00 0.00 0.00 72 1012.7
20260506174503 3 360 16.1 24.1 0.00 0.00 0.00 74 1012.7
20260506174003 2 360 16.1 24.1 0.00 0.00 0.00 74 1012.8
20260506173503 2 360 16.1 22.5 0.00 0.00 0.00 74 1012.8
20260506173003 2 360 16.1 27.4 0.00 0.00 0.00 75 1012.9
20260506172503 2 360 17.7 27.4 0.00 0.00 0.00 74 1012.9
20260506172003 2 360 17.7 25.7 0.00 0.00 0.00 76 1013.1
20260506171717 2 360 17.7 25.7 0.00 0.00 0.00 78 1013.0
20260506171003 2 360 16.1 25.7 0.00 0.00 0.00 77 1013.1
20260506170503 2 360 16.1 27.4 0.00 0.00 0.00 78 1013.1
20260506170003 2 360 17.7 29.0 0.00 0.00 0.00 81 1013.2
20260506165503 2 360 19.3 29.0 0.00 0.00 0.00 81 1013.3
20260506165218 2 360 19.3 29.0 0.00 0.00 0.00 82 1013.3
20260506164503 2 360 16.1 27.4 0.00 0.00 0.00 80 1013.2
20260506164003 1 360 19.3 29.0 0.00 0.00 0.00 83 1013.3
20260506163503 1 360 20.9 29.0 0.00 0.00 0.00 84 1013.4
20260506163003 1 360 17.7 27.4 0.00 0.00 0.00 84 1013.4
20260506162719 1 360 16.1 27.4 0.00 0.00 0.00 84 1013.3
20260506162003 1 360 20.9 27.4 0.00 0.00 0.00 85 1013.5
20260506161717 1 360 20.9 27.4 0.00 0.00 0.00 86 1013.5
20260506161218 1 360 19.3 25.7 0.00 0.00 0.00 84 1013.4
20260506160503 1 360 19.3 27.4 0.00 0.00 0.00 84 1013.5
20260506160216 1 360 19.3 27.4 0.00 0.00 0.00 85 1013.5